This demonstration page uses our WeatherBlox Daily Observations layout. Learn more.

41.86663, -103.66717

Hourly Observations for May 21, 2019

Temp ( °F °C ) Dew Point ( °F °C ) Humidity (%) Winds ( mph kmh ) Pressure ( in mb ) Visibility ( mi km ) Precip ( " mm )
12:43 am 00:43 Cloudy with Light Snow 35 1.7 34 1.1 96 96 ENE 9 15 29.88 1012 4 6.437376 0.08 2.032
12:53 am 00:53 Cloudy with Light Snow 35 1.7 34 1.1 96 96 E 7 11 29.83 1010 5 8.04672 0.1 2.54
1:53 am 01:53 Cloudy with Light Snow 34 1.1 34 1.1 100 100 ENE 6 9 29.8 1009 3 4.828032 0.1 2.54
2:53 am 02:53 Cloudy with Light Rain 36 2.2 35 1.7 97 97 NE 10 17 29.77 1008 7 11.265408 0.12 3.048
3:53 am 03:53 Cloudy with Light Snow 34 1.1 34 1.1 100 100 E 7 11 29.77 1008 2.5 4.02336 0.07 1.778
4:01 am 04:01 Cloudy with Light Snow 34 1.1 34 1.1 100 100 ENE 7 11 29.83 1010 2 3.218688 0.01 0.254
4:08 am 04:08 Cloudy with Light Snow 34 1 34 1 100 100 ENE 8 13 29.83 1010 3 4.828032 0 0
4:53 am 04:53 Cloudy with Light Rain 34 1.1 34 1.1 100 100 E 8 13 29.74 1007 4 6.437376 0.03 0.762
5:12 am 05:12 Cloudy with Light Rain 36 2 36 2 100 100 E 9 15 29.77 1008 6 9.656064 0 0
5:50 am 05:50 Cloudy 36 2 36 2 100 100 ENE 9 15 29.77 1008 10 16.09344 0 0
5:53 am 05:53 Cloudy 36 2.2 35 1.7 97 97 ENE 9 15 29.71 1006 10 16.09344 0.001 0.001
6:00 am 06:00 Cloudy 36 2.2 35 1.7 97 97 ENE 10 17 29.77 1008 10 16.09344 0 0
6:53 am 06:53 Cloudy 37 2.8 36 2.2 96 96 NE 12 19 29.71 1006 10 16.09344 0 0
7:21 am 07:21 Cloudy with Light Rain 37 2.8 37 2.8 100 100 NE 10 17 29.77 1008 6 9.656064 0.01 0.254
7:53 am 07:53 Cloudy with Light Rain 38 3.3 38 3.3 100 100 NNE 12 19 29.68 1005 9 14.484096 0.02 0.508
8:53 am 08:53 Cloudy with Light Rain 38 3.3 37 2.8 97 97 NNE 15 24 29.65 1004 10 16.09344 0.001 0.001
9:53 am 09:53 Cloudy with Light Rain 38 3.3 37 2.8 97 97 NNE 16 26 29.65 1004 3 4.828032 0.02 0.508
9:57 am 09:57 Cloudy with Light Rain 37 2.8 37 2.8 100 100 NNE 15 24 29.74 1007 2.5 4.02336 0.001 0.001
10:14 am 10:14 Cloudy with Light Rain 37 3 37 3 100 100 N 14 22 29.71 1006 5 8.04672 0 0
10:53 am 10:53 Cloudy with Light Rain 38 3.3 37 2.8 97 97 NNE 20 31 29.62 1003 7 11.265408 0.05 1.27
11:11 am 11:11 Cloudy with Light Rain 38 3.3 37 2.8 97 97 NNE 20 31 29.68 1005 10 16.09344 0.01 0.254
11:53 am 11:53 Cloudy 38 3.3 36 2.2 93 93 NNE 23 37 29.65 1004 10 16.09344 0.01 0.254
12:39 pm 12:39 Cloudy with Light Rain 38 3.3 36 2.2 93 93 NNE 20 31 29.65 1004 9 14.484096 0.01 0.254
12:53 pm 12:53 Cloudy with Light Rain 37 2.8 36 2.2 96 96 NNE 18 30 29.62 1003 10 16.09344 0.01 0.254
12:59 pm 12:59 Cloudy with Light Rain 37 2.8 36 2.2 96 96 NNE 18 30 29.65 1004 10 16.09344 0.01 0.254
1:53 pm 13:53 Cloudy with Light Rain 37 2.8 36 2.2 96 96 NNE 20 31 29.59 1002 6 9.656064 0.03 0.762
2:00 pm 14:00 Cloudy with Light Rain 37 3 36 2 93 93 NNE 18 30 29.62 1003 6 9.656064 0 0
2:53 pm 14:53 Cloudy with Light Snow 37 2.8 36 2.2 96 96 N 17 28 29.56 1001 7 11.265408 0.03 0.762
3:47 pm 15:47 Windy with Snow Likely 37 3 36 2 93 93 N 20 31 29.59 1002 7 11.265408 0.03 0.762
3:53 pm 15:53 Cloudy with Light Rain 37 2.8 36 2.2 96 96 N 16 26 29.56 1001 8 12.874752 0.03 0.762
4:05 pm 16:05 Cloudy with Light Snow 37 2.8 35 1.7 93 93 N 17 28 29.62 1003 7 11.265408 0.01 0.254
4:25 pm 16:25 Cloudy with Light Snow 35 1.7 34 1.1 96 96 N 14 22 29.65 1004 2 3.218688 0.02 0.508
4:32 pm 16:32 Cloudy with Light Snow 36 2 34 1 93 93 N 16 26 29.62 1003 1.75 2.816352 0 0
4:53 pm 16:53 Cloudy with Light Snow 34 1.1 34 1.1 100 100 N 15 24 29.59 1002 1.5 2.414016 0.05 1.27
5:09 pm 17:09 Mostly Cloudy with Scattered Snow Showers 34 1.1 33 0.6 97 97 N 15 24 29.68 1005 0.75 1.207008 0.02 0.508
5:48 pm 17:48 Mostly Cloudy with Scattered Snow Showers 34 1 34 1 100 100 NNW 13 20 29.65 1004 1 1.609344 0 0
5:53 pm 17:53 Mostly Cloudy with Scattered Snow Showers 34 1.1 34 1.1 100 100 NNW 14 22 29.59 1002 1 1.609344 0.09 2.286
6:25 pm 18:25 Mostly Cloudy with Scattered Snow Showers 34 1.1 34 1.1 100 100 NNW 15 24 29.65 1004 1 1.609344 0.02 0.508
6:53 pm 18:53 Mostly Cloudy with Scattered Snow Showers 34 1.1 34 1.1 100 100 NNW 15 24 29.56 1001 1 1.609344 0.04 1.016
7:33 pm 19:33 Mostly Cloudy with Scattered Snow Showers 34 1.1 34 1.1 100 100 NW 17 28 29.65 1004 0.75 1.207008 0.02 0.508
7:53 pm 19:53 Mostly Cloudy with Snow 34 1.1 34 1.1 100 100 NNW 18 30 29.56 1001 0.5 0.804672 0.04 1.016
8:15 pm 20:15 Cloudy with Light Snow 34 1.1 34 1.1 100 100 NW 17 28 29.65 1004 1.25 2.01168 0.02 0.508
8:21 pm 20:21 Cloudy with Light Snow 34 1.1 34 1.1 100 100 NW 16 26 29.62 1003 2 3.218688 0.02 0.508
8:43 pm 20:43 Cloudy with Light Snow 34 1.1 34 1.1 100 100 NW 15 24 29.62 1003 4 6.437376 0.03 0.762
8:53 pm 20:53 Cloudy with Light Snow 34 1.1 34 1.1 100 100 NW 16 26 29.56 1001 6 9.656064 0.03 0.762
9:00 pm 21:00 Cloudy with Light Wintry Mix 34 1 34 1 100 100 NW 14 22 29.62 1003 7 11.265408 0 0
9:53 pm 21:53 Cloudy 35 1.7 33 0.6 93 93 NW 14 22 29.56 1001 10 16.09344 0.01 0.254
10:31 pm 22:31 Cloudy 35 1.7 34 1.1 96 96 WNW 12 19 29.65 1004 10 16.09344 0 0
10:53 pm 22:53 Cloudy 35 1.7 34 1.1 96 96 WNW 14 22 29.56 1001 10 16.09344 0 0
11:43 pm 23:43 Cloudy 35 1.7 34 1.1 96 96 WNW 12 19 29.65 1004 10 16.09344 0 0
11:53 pm 23:53 Cloudy 35 1.7 34 1.1 96 96 WNW 12 19 29.56 1001 10 16.09344 0 0

Powered by AerisWeather